Location: A�t �Alizem
(31.2076°N, 8.7872°W)
Time: 02:17:35
(UTC+00:00)

deb Explorer IX - Pass Details

Date: 26 June 2021
Orbit: 541 x 1234 km, 38.9° (Epoch: 31 July)

Event Time Altitude Azimuth Distance (km) Brightness Sun altitude
Exits shadow 00:25:04 16° 54° (NE) 1,901 ? -35.3°
Drops below altitude 10° 00:26:24 10° 61° (ENE) 2,358 ? -35.4°
Sets 00:29:20 0° 69° (ENE) 3,421 ? -35.4°
